sat.trackr.live / text

‹ back to catalog

STARLINK-2443

NORAD 48107 · 2021-027R

PAYLOAD ACTIVE UNKNOWN

§ Identity

Operator
Country
US
Launch date
2021-04-07
Launch site
AFETR
Launch vehicle
Mass (kg)
RCS (m²)

Purposes: comms

External: N2YO · Heavens-Above · Gunter

§ Orbital elements

Epoch: 2026-09-03T19:45:01.682496Z

Period
94.01 min
Inclination
53.1596°
Eccentricity
0.0001211
Mean motion
15.31728543 rev/d
Perigee alt
469.8 km
Apogee alt
471.5 km
Semi-major
6,848.8 km
B*
1.8967e-4
RAAN
43.8109°
Arg perigee
71.2494°
Mean anomaly
288.8639°
Rev number
29,997

§ Raw data

STARLINK-24431 48107U 21027R   26246.82293614  .00005530  00000+0  18967-3 0  99932 48107  53.1596  43.8109 0001211  71.2494 288.8639 15.31728543299977

JSON: /api/v1/satellites/48107 · /tle

For live sub-satellite position, see the globe view (requires WebGL).

§ Visibility from observer

Set your observer location to see the next 7 days of passes ≥ 10°. The values pass through the URL so the page stays shareable.

No JS? Fill the form by hand. The geolocation button needs JavaScript.